User: anonymous   Login
Location: Unspecified
(0.0000°N, 0.0000°E)
Time: 18:55:07
(UTC+00:00)
Language:

ITOS 1 - Orbit

View from above orbital plane
View from above orbital plane
View from above satellite
View from above satellite

Ground track
Ground track

The orbit is defined by the following mean orbital elements,

1 04320U          26133.50420354 +.00000000 +00000-0 +21760-4 0 00000
2 04320 101.3722 168.5141 0028176  22.4908 144.7451 12.52122043    00
Epoch (UTC): 13 May 2026 12:06:03
Eccentricity: 0.0028176
inclination: 101.3722°
perigee height: 1434 km
apogee height: 1478 km
right ascension of ascending node: 168.5141°
argument of perigee: 22.4908°
revolutions per day: 12.52122043
mean anomaly at epoch: 144.7451°

The dashed part of the orbit path shows where the satellite is in the earth's shadow,  

DLR